Location: Cincinnati Observatory Center
(39.1389°N, 84.4225°W)
Time: 03:30:45
(UTC-04:00)

HST - Visible Passes

Search period start: 01 September 2014 00:00
Search period end: 11 September 2014 00:00
Orbit: 547 x 551 km, 28.5° (Epoch: 31 August)

Date Brightness Start Highest point End Pass type
(mag) Time Alt. Az. Time Alt. Az. Time Alt. Az.
05 Sep 3.1 21:27:28 10° S 21:28:03 11° S 21:28:03 11° S visible
06 Sep 2.8 21:19:44 10° SSW 21:21:42 14° SSE 21:21:42 14° SSE visible
07 Sep 2.7 21:12:15 10° SSW 21:14:44 15° S 21:15:16 15° SSE visible
08 Sep 2.6 21:04:55 10° SSW 21:07:39 17° S 21:08:45 15° SSE visible
09 Sep 2.6 20:57:41 10° SW 21:00:34 18° S 21:02:11 15° SSE visible
10 Sep 2.6 20:50:32 10° SW 20:53:29 19° S 20:55:34 14° SE visible
